Home   Weather   Tsingtao   Past weeks
Flag for China

Past Weather in Tsingtao, Shandong, China — Yesterday and Last 2 Weeks

Now
77 °F

Scattered clouds.


Feels Like: 78 °F
Forecast: 81 / 76 °F
Wind: 3 mph from Northeast

Location: Qingdao Airport

Current Time: Jul 19, 2019 at 5:41:22 am

Latest Report: Jul 19, 2019 at 5:00 am


Visibility: N/A

Pressure: 29.68 "Hg

Humidity: 89%

Dew Point: 73 °F

Location of TsingtaoLocation

Past Weather in Tsingtao — Graph

°F

Tsingtao Temperature Yesterday

Maximum temperature yesterday: 86 °F (at 12:00 pm)
Minimum temperature yesterday: 72 °F (at 3:00 am)
Average temperature yesterday: 79 °F

High & Low Weather Summary for the Past Weeks

 TemperatureHumidityPressure
High91 °F (Jul 14, 2:00 pm)100% (Jul 8, 5:00 am)29.80 "Hg (Jul 8, 5:00 am)
Low66 °F (Jul 8, 5:00 am)43% (Jul 13, 1:00 pm)29.47 "Hg (Jul 5, 6:00 pm)
Average78 °F74%29.66 "Hg
* Reported Jul 4 4:00 am — Jul 19 4:00 am, Tsingtao. Weather by CustomWeather, © 2019

Note: Actual official high and low records may vary slightly from our data, if they occured in-between our weather recording intervals... More about our weather records

Advertising

Tsingtao Weather History for the Previous 24 Hours

Scroll right to see more
 ConditionsComfort  
Time TempWeatherWind HumidityBarometerVisibility
4:00 am
Fri, Jul 19
77 °FPassing clouds.3 mph94%29.68 "HgN/A
3:00 am77 °FPassing clouds.6 mph89%29.68 "HgN/A
2:00 am77 °FPassing clouds.1 mph89%29.68 "HgN/A
1:00 am77 °FPassing clouds.1 mph89%29.68 "HgN/A
12:00 am75 °FPassing clouds.1 mph94%29.68 "HgN/A
11:00 pm
Thu, Jul 18
77 °FPassing clouds.No wind89%29.71 "HgN/A
10:00 pm77 °FPassing clouds.3 mph89%29.71 "HgN/A
9:00 pm79 °FPassing clouds.3 mph79%29.71 "HgN/A
8:00 pm79 °FPassing clouds.3 mph84%29.71 "HgN/A
7:00 pm79 °FPartly sunny.8 mph84%29.68 "HgN/A
6:00 pm81 °FScattered clouds.8 mph74%29.68 "HgN/A
5:00 pm81 °FBroken clouds.8 mph74%29.68 "HgN/A
4:00 pm82 °FScattered clouds.10 mph70%29.71 "HgN/A
3:00 pm84 °FScattered clouds.10 mph66%29.68 "HgN/A
2:00 pm86 °FPartly sunny.10 mph62%29.71 "HgN/A
1:00 pm86 °FScattered clouds.10 mph59%29.71 "HgN/A
12:00 pm86 °FScattered clouds.13 mph62%29.71 "HgN/A
11:00 am84 °FScattered clouds.13 mph62%29.74 "HgN/A
10:00 am82 °FPartly sunny.8 mph70%29.74 "HgN/A
9:00 am81 °FBroken clouds.8 mph70%29.74 "HgN/A
8:00 am81 °FPartly sunny.6 mph74%29.74 "HgN/A
7:00 am79 °FPassing clouds.1 mph70%29.74 "HgN/A
6:00 am73 °FPassing clouds.1 mph89%29.74 "HgN/A
5:00 am72 °FSunny.No wind94%29.74 "Hg10 mi
Weather by CustomWeather, © 2019

See weather overview